Location: Kailua
(21.4020°N, 157.7390°W)
Time: 08:16:44
(UTC-10:00)

N. Korean satellite - Visible Passes

Search period start: 25 January 2021 00:00
Search period end: 04 February 2021 00:00
Orbit: 452 x 502 km, 97.2° (Epoch: 24 January)

Date Brightness Start Highest point End Pass type
(mag) Time Alt. Az. Time Alt. Az. Time Alt. Az.
25 Jan 6.2 05:51:27 10° N 05:54:51 74° W 05:58:13 10° SSW visible
26 Jan 8.0 05:25:08 10° NNE 05:28:17 35° E 05:31:25 10° SSE visible
27 Jan 9.7 04:59:52 10° ENE 05:01:39 14° E 05:03:27 10° SE visible
27 Jan 8.0 06:32:38 10° NW 06:34:47 16° WNW 06:36:55 10° WSW visible
28 Jan 6.7 06:05:06 10° N 06:08:19 41° WNW 06:11:31 10° SSW visible
29 Jan 6.8 05:38:24 10° NNE 05:41:47 63° E 05:45:08 10° S visible
30 Jan 8.9 05:12:28 10° NE 05:15:10 22° E 05:17:53 10° SSE visible
31 Jan 7.4 06:18:55 10° NNW 06:21:44 25° WNW 06:24:33 10° SW visible
01 Feb 6.2 05:51:51 10° N 05:55:13 72° WNW 05:58:37 10° SSW visible
02 Feb 7.9 05:25:29 10° NNE 05:28:38 36° E 05:31:48 10° SSE visible
03 Feb 9.7 05:00:07 10° ENE 05:02:00 14° E 05:03:53 10° SE visible
03 Feb 8.0 06:33:01 10° NW 06:35:07 16° WNW 06:37:12 10° WSW visible
